Location: Trois-Rivi�res
(46.3500°N, 72.5500°W)
Time: 01:57:18
(UTC-04:00)

ISS - Pass Details

Date: 11 October 2017
Orbit: 401 x 408 km, 51.6° (Epoch: 23 October)

Event Time Altitude Azimuth Distance (km) Brightness Sun altitude
Rises 18:49:17 0° 296° (WNW) 2,326 1.2 -7.5°
Reaches altitude 10° 18:51:24 10° 301° (WNW) 1,466 0.0 -7.8°
Maximum altitude 18:54:38 55° 21° (NNE) 495 -3.5 -8.4°
Enters shadow 18:57:33 12° 99° (E) 1,334 -1.9 -8.9°
